TimePST,TemperatureF,Dew PointF,Humidity,Sea Level PressureIn,VisibilityMPH,Wind Direction,Wind SpeedMPH,Gust SpeedMPH,PrecipitationIn,Events,Conditions,WindDirDegrees,DateUTC
12:00 AM,45.9,44.8,96,30.18,-9999.0,ESE,3.5,-,0.01,,Unknown,110,2013-03-02 08:00:00
2:00 AM,45.9,44.8,96,30.15,-9999.0,East,6.9,-,N/A,,Unknown,100,2013-03-02 10:00:00
3:00 AM,45.9,44.8,96,30.14,-9999.0,ESE,8.1,-,0.01,,Unknown,110,2013-03-02 11:00:00
4:00 AM,46,45,93,30.11,,ENE,5.8,,,,,70,2013-03-02 12:00:00
5:00 AM,45.5,44.4,96,30.10,-9999.0,SE,3.5,-,N/A,,Unknown,140,2013-03-02 13:00:00
6:00 AM,45.9,45.0,97,30.07,-9999.0,SE,4.6,-,N/A,,Unknown,140,2013-03-02 14:00:00
7:00 AM,45.0,44.1,97,30.07,-9999.0,WSW,4.6,-,N/A,,Unknown,250,2013-03-02 15:00:00
8:00 AM,44.8,43.9,97,30.05,-9999.0,WSW,6.9,-,N/A,,Unknown,240,2013-03-02 16:00:00
9:00 AM,44.8,43.9,97,30.04,-9999.0,NW,6.9,-,N/A,,Unknown,310,2013-03-02 17:00:00
10:00 AM,45,44,95,30.04,,WNW,10.4,,,,,300,2013-03-02 18:00:00
10:00 AM,45.1,44.1,96,30.04,-9999.0,WNW,10.4,-,N/A,,Unknown,300,2013-03-02 18:00:00
11:00 AM,44.6,42.3,91,30.02,-9999.0,West,19.6,-,0.01,,Unknown,280,2013-03-02 19:00:00
12:00 PM,45.0,42.4,91,30.03,-9999.0,WNW,16.1,-,0.02,,Unknown,290,2013-03-02 20:00:00
1:00 PM,45.0,41.7,88,30.01,-9999.0,WNW,18.4,-,0.01,,Unknown,300,2013-03-02 21:00:00
3:00 PM,45.9,40.8,83,30.01,-9999.0,WNW,21.9,-,N/A,,Unknown,290,2013-03-02 23:00:00
4:00 PM,45,41,79,30.02,,NW,12.7,,,,,310,2013-03-03 00:00:00
6:00 PM,43.0,38.5,84,30.06,-9999.0,NW,12.7,-,0.01,,Unknown,320,2013-03-03 02:00:00
7:00 PM,41.4,36.9,84,30.09,-9999.0,WNW,19.6,-,0.10,,Unknown,290,2013-03-03 03:00:00
8:00 PM,43.2,37.0,79,30.09,-9999.0,NW,18.4,-,0.02,,Unknown,310,2013-03-03 04:00:00
9:00 PM,42.3,38.3,86,30.10,-9999.0,West,8.1,-,N/A,,Unknown,260,2013-03-03 05:00:00
10:00 PM,43,36,67,30.12,,West,19.6,,,,,280,2013-03-03 06:00:00
10:00 PM,43.3,35.6,74,30.12,-9999.0,West,19.6,-,N/A,,Unknown,280,2013-03-03 06:00:00
11:00 PM,43.0,37.2,80,30.12,-9999.0,WNW,18.4,-,N/A,,Unknown,290,2013-03-03 07:00:00